Location: Unspecified
(0.0000°N, 0.0000°E)
Time: 19:14:55
(UTC+00:00)

Hubble Space Telescope - Pass Details

Date: 06 August 2021
Orbit: 535 x 539 km, 28.5° (Epoch: 26 September)

Event Time Altitude Azimuth Distance (km) Brightness Sun altitude
Rises 20:00:53 0° 316° (NW) 2,663 5.3 -27.5°
Reaches altitude 10° 20:03:20 10° 326° (NNW) 1,774 4.0 -28.1°
Enters shadow 20:05:03 21° 344° (NNW) 1,235 2.9 -28.5°
